Showing default

JASON 3, 41240

Orbit data source: Space-Track

JASON 3, 41240 is an American payload satellite in LEO that was launched on Sun, 17 Jan 2016 UTC via an FALCON 9 launch vehicle from the Air Force Western Test Range (AFWTR). Payload-class satellites include a variety of spacecraft equipped with specific instruments for various scientific and technological missions. These include communications satellites like Starlink; space stations such as the ISS; scientific satellites like the Hubble; Earth observation satellites from companies like Planet Labs, Umbra, and HawkEye 360; GPS; miniature CubeSats for education and research; and military/defense satellites.

Loading next visibility...
Identifier
41240, 2016-002A
Orbit
LEO
Country
Flag of USUS
Related business
Manufacturer
Thales Alenia
Mission
Partially operational Civil Sci/Met
Bus & Motor
PROTEUS, AOCS
Mass
553 kg wet, 525 kg dry
Launch date (UTC)
2016-01-17 (10 years ago)
Launch vehicle
FALCON 9
Launch site
Air Force Western Test Range (AFWTR)
Object type
Payload
Rocket body
Debris
Shape & HBR
Box + 2 Pan, 15.7 m
Radar Cross Section
12.823 m², Large (>1 m²)

Expand to show TLE details & history
Last TLE update: 4 hours ago

TLE from 4 hours ago
0 JASON 3
1 41240U 16002A   26037.51720230 -.00000045  00000-0  68400-4 0  9990
2 41240  66.0418  40.5561 0007971 275.1002  84.9107 12.87627250470426
Epoch: 2026-02-06T12:24Z
TLE epoch observation values (Epoch: 2026-02-06T12:24:46.278Z)
Latitude
-0.00002°
Longitude
77.70932°
Altitude
1,312.333 km
Speed
7.201 km/s
True Right ascension
02h 42m 13s
True Declination
0° 00' 00"
Sunlit
Object was in daylight at epoch
Visualization orbit readout
Latitude
Unknown
Longitude
Unknown
Altitude
Unknown
Speed
Unknown
Apparent Right ascension
Unknown
Apparent Declination
Unknown
Sunlit
N/A
Visualization observer readout
Local Sidereal Time
18:29:16
Azimuth
Unknown
Elevation
Unknown
Doppler factor
Unknown
Orbital elements
Apogee altitude
1,315.641 km
Perigee altitude
1,303.385 km
Semi-major axis
7,687.65 km
Eccentricity
0.0008
Inclination
66.0418°
RAAN
40.5561°
Arg. of periapsis
275.1002°
True anomaly
85.00169°
Mean anomaly
84.9107°
Eccentric anomaly
84.95619°
Mean motion
3.21998 °/min
Orbital period
111.8 mins
BSTAR
0.0000684
Loading maneuver chart data...
Computing Atmospheric mass density...
Loading historical data...
Loading historical data...
Loading historical data...
Loading historical data...
Loading historical data...
Loading historical data...
Loading historical data...
Other satellites on launch #2 in the year 2016 (2016-01-17 UTC)

Documentation

Showing up to 5 results
|